Location: Katowice
(50.2611°N, 19.0242°E)
Time: 02:36:36
(UTC+02:00)

Explorer 7 - Pass Details

Date: 01 September 2019
Orbit: 485 x 680 km, 50.3° (Epoch: 22 October)

Event Time Altitude Azimuth Distance (km) Brightness Sun altitude
Rises 12:18:44 0° 286° (WNW) 2,984 10.4 47.7°
Reaches altitude 10° 12:21:18 10° 277° (W) 2,044 9.7 47.8°
Maximum altitude 12:25:29 32° 214° (SW) 1,069 9.4 47.9°
Drops below altitude 10° 12:29:26 10° 151° (SSE) 1,931 10.4 47.9°
Sets 12:31:49 0° 142° (SE) 2,793 10.9 48.0°
